COSMOS 2251 DEB, 35895

Orbit data source: Space-Track

COSMOS 2251 DEB, 35895 is space debris in LEO originally from a launch on Wed, 16 Jun 1993 UTC launched from the Plesetsk Missile And Space Complex (PKMTR). The debris from Iridium 33, an American commercial communications satellite, has been tracked extensively since its accidental collision with the defunct Russian satellite Cosmos 2251 in 2009. This event, occurring at high speed in low Earth orbit (LEO), generated thousands of pieces of space debris, significantly increasing the risk of further collisions. The Iridium 33 debris cloud has impacted space traffic management and orbital debris mitigation strategies, making it a subject of ongoing study in space situational awareness.

Loading next visibility...
Identifier
35895, 1993-036AUJ
Orbit
LEO
Country
Flag of CISCIS
Related business
Manufacturer
Unknown
Mission
Spacecraft
Bus & Motor
Unknown
Mass
Unknown
Launch date (UTC)
1993-06-16 (33 years ago)
Launch vehicle
Unknown
Launch site
Plesetsk Missile And Space Complex (PKMTR)
Object type
Payload
Rocket body
Debris
Shape & HBR
Unknown shape, 0.1 m
Radar Cross Section
Small (<0.1 m²)

Expand to show TLE details & history
Last TLE update: 3 weeks ago

TLE from 3 weeks ago
0 COSMOS 2251 DEB
1 35895U 93036AUJ 26100.82403680  .00001464  00000-0  80810-3 0  9996
2 35895  74.0489 140.9499 0204788 212.2492 146.5989 14.02261385606816
Epoch: 2026-04-10T19:46Z
TLE epoch observation values (Epoch: 2026-04-10T19:46:36.779Z)
Latitude
0.00002°
Longitude
5.2445°
Altitude
1,013.656 km
Speed
7.282 km/s
True Right ascension
09h 23m 47s
True Declination
0° 00' 00"
Sunlit
Object was in full shadow at epoch
Visualization orbit readout
Latitude
Unknown
Longitude
Unknown
Altitude
Unknown
Speed
Unknown
Apparent Right ascension
Unknown
Apparent Declination
Unknown
Sunlit
N/A
Visualization observer readout
Local Sidereal Time
17:41:57
Azimuth
Unknown
Elevation
Unknown
Doppler factor
Unknown
Orbital elements
Apogee altitude
1,032.346 km
Perigee altitude
734.921 km
Semi-major axis
7,261.771 km
Eccentricity
0.02048
Inclination
74.0489°
RAAN
140.9499°
Arg. of periapsis
212.2492°
True anomaly
147.8636°
Mean anomaly
146.5989°
Eccentric anomaly
147.23393°
Mean motion
3.50735 °/min
Orbital period
102.64 mins
BSTAR
0.0008081
Loading maneuver chart data...
Computing Atmospheric mass density...

Documentation

Showing up to 5 results
|